User: anonymous   Login
Location: Ferma
(41.9500°N, 44.5167°E)
Time: 10:13:57
(UTC+00:00)
Language:

SKYMED 3 - Orbit

View from above orbital plane
View from above orbital plane
View from above satellite
View from above satellite

Ground track
Ground track

The orbit data is extracted from the following two-line orbital elements,

1 33412U 08054A   22017.80272810  .00000270  00000-0  40525-4 0  9999
2 33412  97.8807 203.6455 0001512  88.0678 272.0718 14.82155827715851
Epoch (UTC): 17 January 2022 19:15:55
Eccentricity: 0.0001512
inclination: 97.8807°
perigee height: 621 km
apogee height: 623 km
right ascension of ascending node: 203.6455°
argument of perigee: 88.0678°
revolutions per day: 14.82155827
mean anomaly at epoch: 272.0718°
orbit number at epoch: 71585

The dashed part of the orbit path shows where the satellite is in the earth's shadow,  

DLR